date,time,SUV Intensity [MED/Hr],UV Index,Daily total [MED],Since Last [MED]
09/09/2022,00:00:36,0.000,0.0,0.0,0.0
09/09/2022,00:02:26,-0.000,0.0,0.0,0.0
09/09/2022,00:03:25,0.000,0.0,0.0,0.0
09/09/2022,00:04:25,-0.001,0.0,0.0,0.0
09/09/2022,00:05:26,0.000,0.0,0.0,0.0
09/09/2022,00:06:25,0.001,0.0,0.0,0.0
09/09/2022,00:07:26,-0.000,0.0,0.0,0.0
09/09/2022,00:08:25,0.000,0.0,0.0,0.0
09/09/2022,00:09:25,0.001,0.0,0.0,0.0
09/09/2022,00:10:25,0.000,0.0,0.0,0.0
09/09/2022,00:11:26,0.000,0.0,0.0,0.0
09/09/2022,00:12:25,0.001,0.0,0.0,0.0
09/09/2022,00:13:25,-0.001,0.0,0.0,0.0
09/09/2022,00:14:25,-0.000,0.0,0.0,0.0
09/09/2022,00:15:33,0.001,0.0,0.0,0.0
09/09/2022,00:16:25,0.000,0.0,0.0,0.0
09/09/2022,00:17:25,0.001,0.0,0.0,0.0
09/09/2022,00:18:25,-0.001,0.0,0.0,0.0
09/09/2022,00:19:25,-0.001,0.0,0.0,0.0
09/09/2022,00:20:26,0.000,0.0,0.0,0.0
09/09/2022,00:21:25,0.000,0.0,0.0,0.0
09/09/2022,00:22:25,0.000,0.0,0.0,0.0
09/09/2022,00:23:25,0.000,0.0,0.0,0.0
09/09/2022,00:24:25,0.000,0.0,0.0,0.0
09/09/2022,00:25:34,-0.001,0.0,0.0,0.0
09/09/2022,00:26:26,0.000,0.0,0.0,0.0
09/09/2022,00:27:26,0.000,0.0,0.0,0.0
09/09/2022,00:28:25,0.000,0.0,0.0,0.0
09/09/2022,00:29:27,0.000,0.0,0.0,0.0
09/09/2022,00:30:25,0.000,0.0,0.0,0.0
09/09/2022,00:31:25,-0.000,0.0,0.0,0.0
09/09/2022,00:32:25,-0.000,0.0,0.0,0.0
09/09/2022,00:33:34,0.000,0.0,0.0,0.0
09/09/2022,00:34:25,0.000,0.0,0.0,0.0
09/09/2022,00:35:26,-0.000,0.0,0.0,0.0
09/09/2022,00:36:25,-0.000,0.0,0.0,0.0
09/09/2022,00:37:26,0.000,0.0,0.0,0.0
09/09/2022,00:38:25,0.000,0.0,0.0,0.0
09/09/2022,00:39:25,-0.000,0.0,0.0,0.0
09/09/2022,00:40:25,0.000,0.0,0.0,0.0
09/09/2022,00:41:26,0.000,0.0,0.0,0.0
09/09/2022,00:42:26,0.000,0.0,0.0,0.0
09/09/2022,00:43:26,0.001,0.0,0.0,0.0
09/09/2022,00:44:25,0.000,0.0,0.0,0.0
09/09/2022,00:45:25,0.001,0.0,0.0,0.0
09/09/2022,00:46:34,0.000,0.0,0.0,0.0
09/09/2022,00:47:24,0.001,0.0,0.0,0.0
09/09/2022,00:48:25,-0.001,0.0,0.0,0.0
09/09/2022,00:49:25,0.000,0.0,0.0,0.0
09/09/2022,00:50:25,-0.001,0.0,0.0,0.0
09/09/2022,00:51:25,-0.000,0.0,0.0,0.0
09/09/2022,00:52:26,0.000,0.0,0.0,0.0
09/09/2022,00:53:26,-0.001,0.0,0.0,0.0
09/09/2022,00:54:34,0.000,0.0,0.0,0.0
09/09/2022,00:55:34,0.000,0.0,0.0,0.0
09/09/2022,00:56:26,0.000,0.0,0.0,0.0
09/09/2022,00:57:27,0.000,0.0,0.0,0.0
09/09/2022,00:58:26,0.000,0.0,0.0,0.0
09/09/2022,00:59:25,0.001,0.0,0.0,0.0
09/09/2022,01:00:25,0.000,0.0,0.0,0.0
09/09/2022,01:01:25,0.000,0.0,0.0,0.0
09/09/2022,01:02:25,0.000,0.0,0.0,0.0
09/09/2022,01:03:25,0.000,0.0,0.0,0.0
09/09/2022,01:04:25,-0.001,0.0,0.0,0.0
09/09/2022,01:05:25,0.000,0.0,0.0,0.0
09/09/2022,01:06:26,-0.000,0.0,0.0,0.0
09/09/2022,01:07:26,0.000,0.0,0.0,0.0
09/09/2022,01:08:26,0.000,0.0,0.0,0.0
09/09/2022,01:09:34,0.000,0.0,0.0,0.0
09/09/2022,01:10:26,0.000,0.0,0.0,0.0
09/09/2022,01:11:26,0.000,0.0,0.0,0.0
09/09/2022,01:12:25,0.002,0.0,0.0,0.0
09/09/2022,01:13:26,0.000,0.0,0.0,0.0
09/09/2022,01:14:25,-0.001,0.0,0.0,0.0
09/09/2022,01:15:26,-0.001,0.0,0.0,0.0
09/09/2022,01:16:25,0.000,0.0,0.0,0.0
09/09/2022,01:17:26,0.000,0.0,0.0,0.0
09/09/2022,01:18:25,-0.000,0.0,0.0,0.0
09/09/2022,01:19:26,0.000,0.0,0.0,0.0
09/09/2022,01:20:26,0.000,0.0,0.0,0.0
09/09/2022,01:21:26,-0.001,0.0,0.0,0.0
09/09/2022,01:22:25,0.000,0.0,0.0,0.0
09/09/2022,01:23:26,0.000,0.0,0.0,0.0
09/09/2022,01:24:26,0.001,0.0,0.0,0.0
09/09/2022,01:25:26,-0.001,0.0,0.0,0.0
09/09/2022,01:26:25,0.000,0.0,0.0,0.0
09/09/2022,01:27:34,0.001,0.0,0.0,0.0
09/09/2022,01:28:26,0.000,0.0,0.0,0.0
09/09/2022,01:29:26,0.000,0.0,0.0,0.0
09/09/2022,01:30:25,-0.001,0.0,0.0,0.0
09/09/2022,01:31:25,0.002,0.0,0.0,0.0
09/09/2022,01:32:25,0.001,0.0,0.0,0.0
09/09/2022,01:33:25,0.000,0.0,0.0,0.0
09/09/2022,01:34:26,0.001,0.0,0.0,0.0
09/09/2022,01:35:26,0.000,0.0,0.0,0.0
09/09/2022,01:36:26,-0.001,0.0,0.0,0.0
09/09/2022,01:37:25,0.000,0.0,0.0,0.0
09/09/2022,01:38:25,-0.001,0.0,0.0,0.0
09/09/2022,01:39:25,0.000,0.0,0.0,0.0
09/09/2022,01:40:25,0.000,0.0,0.0,0.0
09/09/2022,01:41:26,0.000,0.0,0.0,0.0
09/09/2022,01:42:34,0.000,0.0,0.0,0.0
09/09/2022,01:43:25,0.000,0.0,0.0,0.0
09/09/2022,01:44:25,-0.001,0.0,0.0,0.0
09/09/2022,01:45:26,0.000,0.0,0.0,0.0
09/09/2022,01:46:25,0.001,0.0,0.0,0.0
09/09/2022,01:47:26,0.000,0.0,0.0,0.0
09/09/2022,01:48:25,0.001,0.0,0.0,0.0
09/09/2022,01:49:25,-0.001,0.0,0.0,0.0
09/09/2022,01:50:25,0.001,0.0,0.0,0.0
09/09/2022,01:51:26,-0.001,0.0,0.0,0.0
09/09/2022,01:52:33,-0.000,0.0,0.0,0.0
09/09/2022,01:53:26,-0.001,0.0,0.0,0.0
09/09/2022,01:54:25,0.000,0.0,0.0,0.0
09/09/2022,01:55:26,0.000,0.0,0.0,0.0
09/09/2022,01:56:25,0.000,0.0,0.0,0.0
09/09/2022,01:57:25,0.000,0.0,0.0,0.0
09/09/2022,01:58:34,0.000,0.0,0.0,0.0
09/09/2022,01:59:26,0.000,0.0,0.0,0.0
09/09/2022,02:00:34,0.000,0.0,0.0,0.0
09/09/2022,02:01:26,0.000,0.0,0.0,0.0
09/09/2022,02:02:26,0.000,0.0,0.0,0.0
09/09/2022,02:03:25,0.000,0.0,0.0,0.0
09/09/2022,02:04:26,0.000,0.0,0.0,0.0
09/09/2022,02:05:25,-0.001,0.0,0.0,0.0
09/09/2022,02:06:26,-0.000,0.0,0.0,0.0
09/09/2022,02:07:25,0.000,0.0,0.0,0.0
09/09/2022,02:08:25,-0.000,0.0,0.0,0.0
09/09/2022,02:09:26,0.000,0.0,0.0,0.0
09/09/2022,02:10:34,-0.001,0.0,0.0,0.0
09/09/2022,02:11:26,0.000,0.0,0.0,0.0
09/09/2022,02:12:34,0.000,0.0,0.0,0.0
09/09/2022,02:13:26,0.000,0.0,0.0,0.0
09/09/2022,02:14:26,0.001,0.0,0.0,0.0
09/09/2022,02:15:25,0.000,0.0,0.0,0.0
09/09/2022,02:16:26,0.001,0.0,0.0,0.0
09/09/2022,02:17:25,0.000,0.0,0.0,0.0
09/09/2022,02:18:26,0.000,0.0,0.0,0.0
09/09/2022,02:19:26,-0.000,0.0,0.0,0.0
09/09/2022,02:20:25,-0.000,0.0,0.0,0.0
09/09/2022,02:21:26,0.000,0.0,0.0,0.0
09/09/2022,02:22:33,0.000,0.0,0.0,0.0
09/09/2022,02:23:26,0.000,0.0,0.0,0.0
09/09/2022,02:24:25,0.001,0.0,0.0,0.0
09/09/2022,02:25:34,0.001,0.0,0.0,0.0
09/09/2022,02:26:25,-0.001,0.0,0.0,0.0
09/09/2022,02:27:26,0.000,0.0,0.0,0.0
09/09/2022,02:28:34,0.001,0.0,0.0,0.0
09/09/2022,02:29:26,0.001,0.0,0.0,0.0
09/09/2022,02:30:26,0.000,0.0,0.0,0.0
09/09/2022,02:31:25,0.000,0.0,0.0,0.0
09/09/2022,02:32:26,0.000,0.0,0.0,0.0
09/09/2022,02:33:25,0.000,0.0,0.0,0.0
09/09/2022,02:34:25,0.000,0.0,0.0,0.0
09/09/2022,02:35:25,0.001,0.0,0.0,0.0
09/09/2022,02:36:26,0.001,0.0,0.0,0.0
09/09/2022,02:37:25,0.001,0.0,0.0,0.0
09/09/2022,02:38:25,-0.000,0.0,0.0,0.0
09/09/2022,02:39:26,0.000,0.0,0.0,0.0
09/09/2022,02:40:34,0.000,0.0,0.0,0.0
09/09/2022,02:41:25,0.000,0.0,0.0,0.0
09/09/2022,02:42:26,0.000,0.0,0.0,0.0
09/09/2022,02:43:34,0.001,0.0,0.0,0.0
09/09/2022,02:44:26,0.000,0.0,0.0,0.0
09/09/2022,02:45:26,0.000,0.0,0.0,0.0
09/09/2022,02:46:25,-0.000,0.0,0.0,0.0
09/09/2022,02:47:25,0.000,0.0,0.0,0.0
09/09/2022,02:48:26,0.000,0.0,0.0,0.0
09/09/2022,02:49:26,0.001,0.0,0.0,0.0
09/09/2022,02:50:26,-0.001,0.0,0.0,0.0
09/09/2022,02:51:25,0.000,0.0,0.0,0.0
09/09/2022,02:52:25,0.001,0.0,0.0,0.0
09/09/2022,02:53:26,0.000,0.0,0.0,0.0
09/09/2022,02:54:25,0.000,0.0,0.0,0.0
09/09/2022,02:55:34,0.000,0.0,0.0,0.0
09/09/2022,02:56:26,-0.001,0.0,0.0,0.0
09/09/2022,02:57:26,0.002,0.0,0.0,0.0
09/09/2022,02:58:51,-0.001,0.0,0.0,0.0
09/09/2022,03:00:26,0.001,0.0,0.0,0.0
09/09/2022,03:01:34,0.001,0.0,0.0,0.0
09/09/2022,03:02:26,0.001,0.0,0.0,0.0
09/09/2022,03:03:26,0.001,0.0,0.0,0.0
09/09/2022,03:04:26,0.000,0.0,0.0,0.0
09/09/2022,03:05:25,0.000,0.0,0.0,0.0
09/09/2022,03:06:26,-0.001,0.0,0.0,0.0
09/09/2022,03:07:25,0.000,0.0,0.0,0.0
09/09/2022,03:08:26,-0.001,0.0,0.0,0.0
09/09/2022,03:09:25,0.000,0.0,0.0,0.0
09/09/2022,03:10:26,0.000,0.0,0.0,0.0
09/09/2022,03:11:25,0.000,0.0,0.0,0.0
09/09/2022,03:12:26,0.000,0.0,0.0,0.0
09/09/2022,03:13:34,0.000,0.0,0.0,0.0
09/09/2022,03:14:25,-0.000,0.0,0.0,0.0
09/09/2022,03:15:25,0.000,0.0,0.0,0.0
09/09/2022,03:16:34,-0.001,0.0,0.0,0.0
09/09/2022,03:17:26,0.001,0.0,0.0,0.0
09/09/2022,03:18:26,0.001,0.0,0.0,0.0
09/09/2022,03:19:26,-0.001,0.0,0.0,0.0
09/09/2022,03:20:26,-0.000,0.0,0.0,0.0
09/09/2022,03:21:26,0.001,0.0,0.0,0.0
09/09/2022,03:22:25,0.001,0.0,0.0,0.0
09/09/2022,03:23:35,0.000,0.0,0.0,0.0
09/09/2022,03:24:24,0.000,0.0,0.0,0.0
09/09/2022,03:25:26,0.000,0.0,0.0,0.0
09/09/2022,03:26:25,-0.001,0.0,0.0,0.0
09/09/2022,03:27:26,0.000,0.0,0.0,0.0
09/09/2022,03:28:26,0.000,0.0,0.0,0.0
09/09/2022,03:29:26,0.000,0.0,0.0,0.0
09/09/2022,03:30:26,-0.000,0.0,0.0,0.0
09/09/2022,03:31:26,-0.001,0.0,0.0,0.0
09/09/2022,03:32:26,0.001,0.0,0.0,0.0
09/09/2022,03:33:27,0.001,0.0,0.0,0.0
09/09/2022,03:34:34,0.001,0.0,0.0,0.0
09/09/2022,03:35:25,-0.000,0.0,0.0,0.0
09/09/2022,03:36:26,0.001,0.0,0.0,0.0
09/09/2022,03:37:34,0.001,0.0,0.0,0.0
09/09/2022,03:38:25,0.000,0.0,0.0,0.0
09/09/2022,03:39:26,-0.001,0.0,0.0,0.0
09/09/2022,03:40:25,0.002,0.0,0.0,0.0
09/09/2022,03:41:42,0.001,0.0,0.0,0.0
09/09/2022,03:43:27,0.000,0.0,0.0,0.0
09/09/2022,03:44:26,0.001,0.0,0.0,0.0
09/09/2022,03:45:26,0.000,0.0,0.0,0.0
09/09/2022,03:46:26,0.001,0.0,0.0,0.0
09/09/2022,03:47:26,0.000,0.0,0.0,0.0
09/09/2022,03:48:26,0.000,0.0,0.0,0.0
09/09/2022,03:49:26,0.000,0.0,0.0,0.0
09/09/2022,03:50:26,0.000,0.0,0.0,0.0
09/09/2022,03:51:26,0.001,0.0,0.0,0.0
09/09/2022,03:52:25,0.001,0.0,0.0,0.0
09/09/2022,03:53:26,-0.000,0.0,0.0,0.0
09/09/2022,03:54:25,0.000,0.0,0.0,0.0
09/09/2022,03:55:26,0.001,0.0,0.0,0.0
09/09/2022,03:56:25,0.000,0.0,0.0,0.0
09/09/2022,03:57:26,0.000,0.0,0.0,0.0
09/09/2022,03:58:25,0.000,0.0,0.0,0.0
09/09/2022,03:59:33,0.002,0.0,0.0,0.0
09/09/2022,04:00:26,0.000,0.0,0.0,0.0
09/09/2022,04:01:34,0.000,0.0,0.0,0.0
09/09/2022,04:02:25,0.000,0.0,0.0,0.0
09/09/2022,04:03:26,0.000,0.0,0.0,0.0
09/09/2022,04:04:26,0.000,0.0,0.0,0.0
09/09/2022,04:05:26,0.000,0.0,0.0,0.0
09/09/2022,04:06:26,0.000,0.0,0.0,0.0
09/09/2022,04:07:43,-0.001,0.0,0.0,0.0
09/09/2022,04:09:27,0.001,0.0,0.0,0.0
09/09/2022,04:10:26,0.001,0.0,0.0,0.0
09/09/2022,04:11:26,0.001,0.0,0.0,0.0
09/09/2022,04:12:26,0.000,0.0,0.0,0.0
09/09/2022,04:13:26,0.000,0.0,0.0,0.0
09/09/2022,04:14:34,0.001,0.0,0.0,0.0
09/09/2022,04:15:26,0.001,0.0,0.0,0.0
09/09/2022,04:16:26,0.001,0.0,0.0,0.0
09/09/2022,04:17:26,0.001,0.0,0.0,0.0
09/09/2022,04:18:26,-0.001,0.0,0.0,0.0
09/09/2022,04:19:26,0.000,0.0,0.0,0.0
09/09/2022,04:20:26,-0.000,0.0,0.0,0.0
09/09/2022,04:21:26,0.001,0.0,0.0,0.0
09/09/2022,04:22:26,0.001,0.0,0.0,0.0
09/09/2022,04:23:25,0.001,0.0,0.0,0.0
09/09/2022,04:24:26,0.000,0.0,0.0,0.0
09/09/2022,04:25:26,0.000,0.0,0.0,0.0
09/09/2022,04:26:34,0.000,0.0,0.0,0.0
09/09/2022,04:27:26,0.000,0.0,0.0,0.0
09/09/2022,04:28:26,0.000,0.0,0.0,0.0
09/09/2022,04:29:26,0.000,0.0,0.0,0.0
09/09/2022,04:30:26,0.000,0.0,0.0,0.0
09/09/2022,04:31:25,0.001,0.0,0.0,0.0
09/09/2022,04:32:26,0.000,0.0,0.0,0.0
09/09/2022,04:33:26,0.000,0.0,0.0,0.0
09/09/2022,04:34:26,0.002,0.0,0.0,0.0
09/09/2022,04:35:26,0.001,0.0,0.0,0.0
09/09/2022,04:36:26,0.001,0.0,0.0,0.0
09/09/2022,04:37:26,-0.001,0.0,0.0,0.0
09/09/2022,04:38:34,0.001,0.0,0.0,0.0
09/09/2022,04:39:26,0.000,0.0,0.0,0.0
09/09/2022,04:40:26,0.001,0.0,0.0,0.0
09/09/2022,04:41:26,0.000,0.0,0.0,0.0
09/09/2022,04:42:26,0.000,0.0,0.0,0.0
09/09/2022,04:43:26,0.000,0.0,0.0,0.0
09/09/2022,04:44:26,0.001,0.0,0.0,0.0
09/09/2022,04:45:26,0.001,0.0,0.0,0.0
09/09/2022,04:46:26,0.001,0.0,0.0,0.0
09/09/2022,04:47:26,0.001,0.0,0.0,0.0
09/09/2022,04:48:26,0.001,0.0,0.0,0.0
09/09/2022,04:49:26,-0.000,0.0,0.0,0.0
09/09/2022,04:50:26,0.000,0.0,0.0,0.0
09/09/2022,04:51:34,0.001,0.0,0.0,0.0
09/09/2022,04:52:25,0.001,0.0,0.0,0.0
09/09/2022,04:53:35,0.001,0.0,0.0,0.0
09/09/2022,04:54:25,0.001,0.0,0.0,0.0
09/09/2022,04:55:26,0.001,0.0,0.0,0.0
09/09/2022,04:56:26,-0.001,0.0,0.0,0.0
09/09/2022,04:57:26,0.001,0.0,0.0,0.0
09/09/2022,04:58:26,0.001,0.0,0.0,0.0
09/09/2022,04:59:34,0.001,0.0,0.0,0.0
09/09/2022,05:00:25,0.001,0.0,0.0,0.0
09/09/2022,05:01:26,0.001,0.0,0.0,0.0
09/09/2022,05:02:26,0.002,0.0,0.0,0.0
09/09/2022,05:03:26,0.001,0.0,0.0,0.0
09/09/2022,05:04:26,0.001,0.0,0.0,0.0
09/09/2022,05:05:25,0.001,0.0,0.0,0.0
09/09/2022,05:06:26,0.000,0.0,0.0,0.0
09/09/2022,05:07:26,0.001,0.0,0.0,0.0
09/09/2022,05:08:26,0.001,0.0,0.0,0.0
09/09/2022,05:09:26,0.001,0.0,0.0,0.0
09/09/2022,05:10:26,0.002,0.0,0.0,0.0
09/09/2022,05:11:17,0.001,0.0,0.0,0.0
09/09/2022,05:12:27,0.001,0.0,0.0,0.0
09/09/2022,05:13:26,0.001,0.0,0.0,0.0
09/09/2022,05:14:26,0.001,0.0,0.0,0.0
09/09/2022,05:15:26,0.001,0.0,0.0,0.0
09/09/2022,05:16:26,0.001,0.0,0.0,0.0
09/09/2022,05:17:26,0.000,0.0,0.0,0.0
09/09/2022,05:18:26,0.000,0.0,0.0,0.0
09/09/2022,05:19:26,0.001,0.0,0.0,0.0
09/09/2022,05:20:26,-0.001,0.0,0.0,0.0
09/09/2022,05:21:26,0.002,0.0,0.0,0.0
09/09/2022,05:22:26,0.001,0.0,0.0,0.0
09/09/2022,05:23:26,0.002,0.0,0.0,0.0
09/09/2022,05:24:34,0.001,0.0,0.0,0.0
09/09/2022,05:25:25,0.000,0.0,0.0,0.0
09/09/2022,05:26:26,0.001,0.0,0.0,0.0
09/09/2022,05:27:34,0.001,0.0,0.0,0.0
09/09/2022,05:28:26,0.001,0.0,0.0,0.0
09/09/2022,05:29:26,0.001,0.0,0.0,0.0
09/09/2022,05:30:34,0.001,0.0,0.0,0.0
09/09/2022,05:31:26,0.001,0.0,0.0,0.0
09/09/2022,05:32:26,0.001,0.0,0.0,0.0
09/09/2022,05:33:34,0.001,0.0,0.0,0.0
09/09/2022,05:34:25,0.002,0.0,0.0,0.0
09/09/2022,05:35:26,0.002,0.0,0.0,0.0
09/09/2022,05:36:26,0.002,0.0,0.0,0.0
09/09/2022,05:37:26,0.002,0.0,0.0,0.0
09/09/2022,05:38:26,0.002,0.0,0.0,0.0
09/09/2022,05:39:26,0.002,0.0,0.0,0.0
09/09/2022,05:40:26,0.002,0.0,0.0,0.0
09/09/2022,05:41:26,0.002,0.0,0.0,0.0
09/09/2022,05:42:26,0.002,0.0,0.0,0.0
09/09/2022,05:43:26,0.003,0.0,0.0,0.0
09/09/2022,05:44:26,0.003,0.0,0.0,0.0
09/09/2022,05:45:26,0.003,0.0,0.0,0.0
09/09/2022,05:46:26,0.003,0.0,0.0,0.0
09/09/2022,05:47:26,0.002,0.0,0.0,0.0
09/09/2022,05:48:27,0.002,0.0,0.0,0.0
09/09/2022,05:49:26,0.002,0.0,0.0,0.0
09/09/2022,05:50:26,0.003,0.0,0.0,0.0
09/09/2022,05:51:26,0.003,0.0,0.0,0.0
09/09/2022,05:52:26,0.004,0.0,0.0,0.0
09/09/2022,05:53:26,0.004,0.0,0.0,0.0
09/09/2022,05:54:26,0.005,0.0,0.0,0.0
09/09/2022,05:55:26,0.005,0.0,0.0,0.0
09/09/2022,05:56:26,0.006,0.0,0.0,0.0
09/09/2022,05:57:26,0.004,0.0,0.0,0.0
09/09/2022,05:58:34,0.004,0.0,0.0,0.0
09/09/2022,05:59:25,0.004,0.0,0.0,0.0
09/09/2022,06:00:25,0.003,0.0,0.0,0.0
09/09/2022,06:01:34,0.004,0.0,0.0,0.0
09/09/2022,06:02:26,0.005,0.0,0.0,0.0
09/09/2022,06:03:26,0.005,0.0,0.0,0.0
09/09/2022,06:04:26,0.006,0.0,0.0,0.0
09/09/2022,06:05:26,0.007,0.0,0.0,0.0
09/09/2022,06:06:26,0.008,0.0,0.0,0.0
09/09/2022,06:07:26,0.008,0.0,0.0,0.0
09/09/2022,06:08:26,0.008,0.0,0.001,0.001
09/09/2022,06:09:26,0.008,0.0,0.001,0.0
09/09/2022,06:10:26,0.006,0.0,0.001,0.0
09/09/2022,06:11:26,0.007,0.0,0.001,0.0
09/09/2022,06:12:26,0.007,0.0,0.001,0.0
09/09/2022,06:13:26,0.006,0.0,0.001,0.0
09/09/2022,06:14:26,0.007,0.0,0.001,0.0
09/09/2022,06:15:26,0.008,0.0,0.001,0.0
09/09/2022,06:16:35,0.008,0.0,0.002,0.001
09/09/2022,06:17:26,0.008,0.0,0.002,0.0
09/09/2022,06:18:26,0.009,0.0,0.002,0.0
09/09/2022,06:19:26,0.009,0.0,0.002,0.0
09/09/2022,06:20:26,0.009,0.0,0.002,0.0
09/09/2022,06:21:26,0.010,0.0,0.002,0.0
09/09/2022,06:22:26,0.009,0.0,0.002,0.0
09/09/2022,06:23:25,0.008,0.0,0.003,0.001
09/09/2022,06:24:26,0.008,0.0,0.003,0.0
09/09/2022,06:25:26,0.007,0.0,0.003,0.0
09/09/2022,06:26:26,0.007,0.0,0.003,0.0
09/09/2022,06:27:26,0.006,0.0,0.003,0.0
09/09/2022,06:28:26,0.007,0.0,0.003,0.0
09/09/2022,06:29:26,0.008,0.0,0.003,0.0
09/09/2022,06:30:26,0.007,0.0,0.003,0.0
09/09/2022,06:31:26,0.008,0.0,0.003,0.0
09/09/2022,06:32:26,0.009,0.0,0.004,0.001
09/09/2022,06:33:26,0.010,0.0,0.004,0.0
09/09/2022,06:34:35,0.010,0.0,0.004,0.0
09/09/2022,06:35:26,0.009,0.0,0.004,0.0
09/09/2022,06:36:26,0.009,0.0,0.004,0.0
09/09/2022,06:37:26,0.008,0.0,0.004,0.0
09/09/2022,06:38:27,0.008,0.0,0.004,0.0
09/09/2022,06:39:26,0.008,0.0,0.005,0.001
09/09/2022,06:40:26,0.008,0.0,0.005,0.0
09/09/2022,06:41:26,0.009,0.0,0.005,0.0
09/09/2022,06:42:26,0.009,0.0,0.005,0.0
09/09/2022,06:43:26,0.010,0.0,0.005,0.0
09/09/2022,06:44:26,0.011,0.0,0.005,0.0
09/09/2022,06:45:26,0.010,0.0,0.006,0.001
09/09/2022,06:46:26,0.011,0.0,0.006,0.0
09/09/2022,06:47:26,0.010,0.0,0.006,0.0
09/09/2022,06:48:26,0.010,0.0,0.006,0.0
09/09/2022,06:49:26,0.011,0.0,0.006,0.0
09/09/2022,06:50:26,0.011,0.0,0.006,0.0
09/09/2022,06:51:26,0.011,0.0,0.007,0.001
09/09/2022,06:52:26,0.012,0.0,0.007,0.0
09/09/2022,06:53:26,0.013,0.0,0.007,0.0
09/09/2022,06:54:26,0.014,0.0,0.007,0.0
09/09/2022,06:55:26,0.014,0.0,0.007,0.0
09/09/2022,06:56:34,0.013,0.0,0.008,0.001
09/09/2022,06:57:26,0.016,0.0,0.008,0.0
09/09/2022,06:58:26,0.016,0.0,0.008,0.0
09/09/2022,06:59:34,0.016,0.0,0.008,0.0
09/09/2022,07:00:26,0.016,0.0,0.009,0.001
09/09/2022,07:01:26,0.016,0.0,0.009,0.0
09/09/2022,07:02:35,0.017,0.0,0.009,0.0
09/09/2022,07:03:26,0.018,0.0,0.01,0.001
09/09/2022,07:04:26,0.019,0.0,0.01,0.0
09/09/2022,07:05:34,0.020,0.0,0.01,0.0
09/09/2022,07:06:27,0.019,0.0,0.011,0.001
09/09/2022,07:07:26,0.021,0.0,0.011,0.0
09/09/2022,07:08:26,0.024,0.0,0.011,0.0
09/09/2022,07:09:26,0.027,0.0,0.012,0.001
09/09/2022,07:10:26,0.026,0.0,0.012,0.0
09/09/2022,07:11:26,0.029,0.0,0.013,0.001
09/09/2022,07:12:26,0.027,0.0,0.013,0.0
09/09/2022,07:13:26,0.029,0.0,0.014,0.001
09/09/2022,07:14:26,0.030,0.0,0.014,0.0
09/09/2022,07:15:26,0.033,0.0,0.015,0.001
09/09/2022,07:16:26,0.034,0.0,0.015,0.0
09/09/2022,07:17:37,0.034,0.0,0.016,0.001
09/09/2022,07:19:27,0.030,0.0,0.017,0.001
09/09/2022,07:20:34,0.030,0.0,0.017,0.0
09/09/2022,07:21:50,0.029,0.0,0.018,0.001
09/09/2022,07:23:27,0.028,0.0,0.019,0.001
09/09/2022,07:24:26,0.029,0.0,0.019,0.0
09/09/2022,07:25:26,0.028,0.0,0.02,0.001
09/09/2022,07:26:26,0.025,0.0,0.02,0.0
09/09/2022,07:27:26,0.027,0.0,0.021,0.001
09/09/2022,07:28:42,0.030,0.0,0.021,0.0
09/09/2022,07:30:27,0.039,0.0,0.022,0.001
09/09/2022,07:31:26,0.045,0.0,0.023,0.001
09/09/2022,07:32:26,0.048,0.0,0.024,0.001
09/09/2022,07:33:26,0.051,0.0,0.024,0.0
09/09/2022,07:34:26,0.054,0.0,0.025,0.001
09/09/2022,07:35:37,0.054,0.0,0.026,0.001
09/09/2022,07:37:26,0.053,0.0,0.028,0.002
09/09/2022,07:38:26,0.049,0.0,0.029,0.001
09/09/2022,07:39:26,0.048,0.0,0.03,0.001
09/09/2022,07:40:26,0.040,0.0,0.03,0.0
09/09/2022,07:41:26,0.036,0.0,0.031,0.001
09/09/2022,07:42:26,0.034,0.0,0.031,0.0
09/09/2022,07:43:26,0.031,0.0,0.032,0.001
09/09/2022,07:44:26,0.032,0.0,0.033,0.001
09/09/2022,07:45:26,0.032,0.0,0.033,0.0
09/09/2022,07:46:38,0.033,0.0,0.034,0.001
09/09/2022,07:48:35,0.042,0.0,0.035,0.001
09/09/2022,07:49:25,0.046,0.0,0.036,0.001
09/09/2022,07:50:34,0.048,0.0,0.037,0.001
09/09/2022,07:51:26,0.046,0.0,0.037,0.0
09/09/2022,07:52:26,0.047,0.0,0.038,0.001
09/09/2022,07:53:26,0.051,0.0,0.039,0.001
09/09/2022,07:54:26,0.051,0.0,0.04,0.001
09/09/2022,07:55:26,0.050,0.0,0.04,0.0
09/09/2022,07:56:26,0.053,0.0,0.041,0.001
09/09/2022,07:57:26,0.061,0.0,0.042,0.001
09/09/2022,07:58:26,0.065,0.0,0.043,0.001
09/09/2022,07:59:26,0.068,0.0,0.044,0.001
09/09/2022,08:00:35,0.071,0.0,0.046,0.002
09/09/2022,08:01:27,0.072,0.0,0.047,0.001
09/09/2022,08:02:27,0.068,0.0,0.048,0.001
09/09/2022,08:03:26,0.067,0.0,0.049,0.001
09/09/2022,08:04:26,0.059,0.0,0.05,0.001
09/09/2022,08:05:26,0.057,0.0,0.051,0.001
09/09/2022,08:06:35,0.058,0.0,0.052,0.001
09/09/2022,08:07:26,0.062,0.0,0.053,0.001
09/09/2022,08:08:35,0.062,0.0,0.054,0.001
09/09/2022,08:09:26,0.069,0.0,0.055,0.001
09/09/2022,08:10:26,0.061,0.0,0.056,0.001
09/09/2022,08:11:26,0.055,0.0,0.057,0.001
09/09/2022,08:12:26,0.059,0.0,0.058,0.001
09/09/2022,08:13:26,0.065,0.0,0.059,0.001
09/09/2022,08:14:26,0.066,0.0,0.06,0.001
09/09/2022,08:15:26,0.069,0.0,0.061,0.001
09/09/2022,08:16:26,0.081,0.0,0.063,0.002
09/09/2022,08:17:26,0.098,0.0,0.064,0.001
09/09/2022,08:18:26,0.107,0.0,0.066,0.002
09/09/2022,08:19:26,0.108,0.0,0.068,0.002
09/09/2022,08:20:26,0.096,0.0,0.069,0.001
09/09/2022,08:21:35,0.079,0.0,0.071,0.002
09/09/2022,08:22:26,0.076,0.0,0.072,0.001
09/09/2022,08:23:26,0.075,0.0,0.073,0.001
09/09/2022,08:24:43,0.076,0.0,0.075,0.002
09/09/2022,08:26:27,0.100,0.0,0.077,0.002
09/09/2022,08:27:35,0.129,0.0,0.08,0.003
09/09/2022,08:28:26,0.141,0.0,0.082,0.002
09/09/2022,08:29:27,0.137,0.0,0.084,0.002
09/09/2022,08:30:26,0.130,0.0,0.086,0.002
09/09/2022,08:31:26,0.124,0.0,0.088,0.002
09/09/2022,08:32:26,0.130,0.0,0.09,0.002
09/09/2022,08:33:34,0.116,0.0,0.093,0.003
09/09/2022,08:34:26,0.099,0.0,0.094,0.001
09/09/2022,08:35:26,0.084,0.0,0.096,0.002
09/09/2022,08:36:26,0.072,0.0,0.097,0.001
09/09/2022,08:37:26,0.060,0.0,0.098,0.001
09/09/2022,08:38:27,0.058,0.0,0.099,0.001
09/09/2022,08:39:26,0.068,0.0,0.1,0.001
09/09/2022,08:40:26,0.080,0.0,0.101,0.001
09/09/2022,08:41:27,0.093,0.0,0.103,0.002
09/09/2022,08:42:26,0.104,0.0,0.104,0.001
09/09/2022,08:43:26,0.126,0.0,0.106,0.002
09/09/2022,08:44:26,0.148,0.0,0.109,0.003
09/09/2022,08:45:26,0.163,0.0,0.111,0.002
09/09/2022,08:46:26,0.176,0.0,0.114,0.003
09/09/2022,08:47:26,0.183,0.0,0.117,0.003
09/09/2022,08:48:34,0.166,0.0,0.12,0.003
09/09/2022,08:49:26,0.151,0.0,0.123,0.003
09/09/2022,08:50:26,0.143,0.0,0.125,0.002
09/09/2022,08:51:26,0.134,0.0,0.127,0.002
09/09/2022,08:52:26,0.136,0.0,0.13,0.003
09/09/2022,08:53:19,0.136,0.0,0.132,0.002
09/09/2022,08:54:27,0.125,0.0,0.134,0.002
09/09/2022,08:55:26,0.116,0.0,0.136,0.002
09/09/2022,08:56:27,0.111,0.0,0.138,0.002
09/09/2022,08:57:26,0.110,0.0,0.14,0.002
09/09/2022,08:58:34,0.106,0.0,0.142,0.002
09/09/2022,08:59:27,0.102,0.0,0.143,0.001
09/09/2022,09:00:26,0.113,0.0,0.145,0.002
09/09/2022,09:01:27,0.123,0.0,0.147,0.002
09/09/2022,09:02:26,0.147,0.0,0.149,0.002
09/09/2022,09:03:27,0.168,0.0,0.152,0.003
09/09/2022,09:04:34,0.205,0.0,0.156,0.004
09/09/2022,09:05:26,0.182,0.0,0.158,0.002
09/09/2022,09:06:26,0.145,0.0,0.161,0.003
09/09/2022,09:07:26,0.135,0.0,0.163,0.002
09/09/2022,09:08:26,0.139,0.0,0.166,0.003
09/09/2022,09:09:26,0.127,0.0,0.168,0.002
09/09/2022,09:10:27,0.127,0.0,0.17,0.002
09/09/2022,09:11:26,0.108,0.0,0.172,0.002
09/09/2022,09:12:27,0.107,0.0,0.174,0.002
09/09/2022,09:13:26,0.110,0.0,0.176,0.002
09/09/2022,09:14:27,0.113,0.0,0.177,0.001
09/09/2022,09:15:27,0.117,0.0,0.179,0.002
09/09/2022,09:16:34,0.133,0.0,0.182,0.003
09/09/2022,09:17:26,0.133,0.0,0.184,0.002
09/09/2022,09:18:26,0.130,0.0,0.186,0.002
09/09/2022,09:19:26,0.127,0.0,0.188,0.002
09/09/2022,09:20:28,0.131,0.0,0.19,0.002
09/09/2022,09:21:26,0.147,0.0,0.192,0.002
09/09/2022,09:22:26,0.157,0.0,0.195,0.003
09/09/2022,09:23:26,0.167,0.0,0.198,0.003
09/09/2022,09:24:26,0.187,0.0,0.201,0.003
09/09/2022,09:25:26,0.218,1.0,0.204,0.003
09/09/2022,09:26:26,0.248,1.0,0.208,0.004
09/09/2022,09:27:26,0.273,1.0,0.212,0.004
09/09/2022,09:28:26,0.290,1.0,0.217,0.005
09/09/2022,09:29:27,0.297,1.0,0.222,0.005
09/09/2022,09:30:26,0.263,1.0,0.227,0.005
09/09/2022,09:31:35,0.240,1.0,0.231,0.004
09/09/2022,09:32:25,0.226,1.0,0.235,0.004
09/09/2022,09:33:26,0.221,1.0,0.238,0.003
09/09/2022,09:34:35,0.224,1.0,0.243,0.005
09/09/2022,09:35:25,0.230,1.0,0.246,0.003
09/09/2022,09:36:26,0.224,1.0,0.25,0.004
09/09/2022,09:37:35,0.209,0.0,0.254,0.004
09/09/2022,09:38:27,0.194,0.0,0.257,0.003
09/09/2022,09:39:26,0.187,0.0,0.26,0.003
09/09/2022,09:40:27,0.202,0.0,0.263,0.003
09/09/2022,09:41:26,0.222,1.0,0.267,0.004
09/09/2022,09:42:26,0.253,1.0,0.271,0.004
09/09/2022,09:43:26,0.303,1.0,0.275,0.004
09/09/2022,09:44:28,0.344,1.0,0.281,0.006
09/09/2022,09:45:26,0.337,1.0,0.286,0.005
09/09/2022,09:46:27,0.278,1.0,0.291,0.005
09/09/2022,09:47:26,0.239,1.0,0.296,0.005
09/09/2022,09:48:27,0.217,0.0,0.3,0.004
09/09/2022,09:49:27,0.190,0.0,0.303,0.003
09/09/2022,09:50:26,0.180,0.0,0.306,0.003
09/09/2022,09:51:26,0.156,0.0,0.309,0.003
09/09/2022,09:52:34,0.144,0.0,0.312,0.003
09/09/2022,09:53:26,0.151,0.0,0.314,0.002
09/09/2022,09:54:26,0.167,0.0,0.316,0.002
09/09/2022,09:55:26,0.176,0.0,0.319,0.003
09/09/2022,09:56:27,0.179,0.0,0.322,0.003
09/09/2022,09:57:26,0.188,0.0,0.325,0.003
09/09/2022,09:58:27,0.211,0.0,0.329,0.004
09/09/2022,09:59:26,0.218,1.0,0.332,0.003
09/09/2022,10:00:26,0.237,1.0,0.336,0.004
09/09/2022,10:01:26,0.230,1.0,0.34,0.004
09/09/2022,10:02:35,0.198,0.0,0.344,0.004
09/09/2022,10:03:27,0.182,0.0,0.347,0.003
09/09/2022,10:04:26,0.186,0.0,0.35,0.003
09/09/2022,10:05:27,0.201,0.0,0.353,0.003
09/09/2022,10:06:26,0.197,0.0,0.356,0.003
09/09/2022,10:07:27,0.177,0.0,0.359,0.003
09/09/2022,10:08:27,0.177,0.0,0.362,0.003
09/09/2022,10:09:26,0.178,0.0,0.365,0.003
09/09/2022,10:10:26,0.194,0.0,0.368,0.003
09/09/2022,10:11:26,0.224,1.0,0.372,0.004
09/09/2022,10:12:26,0.247,1.0,0.376,0.004
09/09/2022,10:13:26,0.272,1.0,0.38,0.004
09/09/2022,10:14:26,0.283,1.0,0.385,0.005
09/09/2022,10:15:27,0.260,1.0,0.389,0.004